Location: Greenwich
(51.4790°N, 0.0090°E)
Time: 21:54:25
(UTC+01:00)

Vanguard 3 - Pass Details

Date: 21 April 2024
Orbit: 509 x 3233 km, 33.3° (Epoch: 25 May)

Event Time Altitude Azimuth Distance (km) Brightness Sun altitude
Exits shadow 05:06:22 - 223° (SW) 5,746 10.9 -7.1°
Reaches altitude 10° 05:09:13 10° 217° (SW) 5,047 10.6 -6.7°
Maximum altitude 05:18:44 23° 173° (S) 3,192 10.0 -5.4°
Drops below altitude 10° 05:25:20 10° 125° (SE) 3,380 10.7 -4.5°
Sets 05:28:21 0° 111° (ESE) 3,988 11.4 -4.1°
